Theta_e
300 300 300 301 300 300 300 301 302 303 303 301 299 299 299 300 310 309 303 306 306 301 304 308 307 310 310 315 322 323 319 320 321 321 321 321 321 325 325 325 325 334 333 333 329
299 300 300 300 300 301 300 301 303 304 303 300 299 299 299 301 309 308 304 305 304 303 306 304 311 314 313 313 317 320 319 322 321 319 319 320 320 322 323 323 323 332 332 332 328
299 300 300 300 299 300 300 301 302 302 302 299 299 299 300 306 309 306 301 301 302 306 307 306 308 310 315 313 316 318 319 320 320 319 319 320 320 320 320 321 325 332 332 331 329
300 300 300 299 299 299 299 300 300 299 299 298 298 298 303 307 308 302 300 301 303 305 306 306 308 309 311 312 314 316 317 320 320 319 320 321 321 319 319 319 324 328 332 332 330
300 300 300 299 298 298 298 298 298 298 298 298 300 301 303 306 303 303 302 299 300 300 304 306 308 309 310 311 312 313 313 314 314 318 322 322 322 321 321 320 320 328 331 330 331
300 300 299 299 298 298 298 298 298 299 300 301 301 304 306 306 304 306 305 303 300 299 305 305 307 309 307 307 309 309 309 310 311 312 317 321 321 320 321 320 320 320 324 330 330
301 300 299 299 298 298 298 298 299 300 302 300 304 307 305 305 306 306 307 306 305 305 305 305 303 308 309 307 308 308 307 307 307 309 315 319 319 319 319 320 320 321 320 322 324
300 300 299 299 299 298 298 299 300 301 301 303 306 307 304 307 306 305 305 306 306 307 305 305 305 308 308 308 307 306 306 307 308 306 307 316 317 314 316 317 319 319 319 319 323
299 300 299 299 299 298 300 300 301 301 305 306 308 308 306 307 306 306 306 307 307 308 308 308 307 308 308 307 307 306 305 307 308 308 308 312 314 313 314 314 313 315 316 318 320
298 300 299 299 299 299 299 301 303 301 305 307 306 308 306 306 306 307 307 307 307 308 308 308 308 306 306 307 308 310 309 308 306 306 307 306 305 306 308 308 309 310 311 315 319
298 300 299 299 298 298 298 300 300 302 305 304 305 306 306 306 307 307 308 308 308 308 308 307 306 308 308 308 308 307 308 308 308 308 307 308 305 306 307 307 307 308 309 311 313
298 301 300 300 298 298 298 298 299 299 304 306 306 307 307 307 307 308 307 307 308 307 308 307 309 308 307 307 307 308 308 308 309 309 309 307 307 307 307 308 308 308 308 309 313
298 300 300 300 299 298 298 299 300 303 306 306 306 307 306 306 307 307 308 308 307 308 308 309 308 308 309 308 309 308 309 309 309 308 307 307 306 307 308 308 308 308 308 308 309
298 300 300 300 301 301 299 298 300 307 298 301 306 308 306 306 307 308 307 307 308 309 308 308 309 309 309 309 309 310 308 308 309 307 308 306 306 306 306 307 307 308 308 308 309
298 300 300 299 298 299 298 298 301 306 297 301 303 304 306 306 307 308 308 307 308 308 307 308 308 309 309 310 309 309 308 308 308 310 308 307 303 305 306 306 306 306 306 307 307
298 300 300 300 300 298 298 300 304 300 295 298 303 304 305 307 307 308 309 308 308 307 307 306 308 308 308 307 308 308 309 307 309 309 302 306 306 306 306 306 307 307 307 307 308
298 299 300 299 299 298 299 304 298 296 296 296 300 303 304 305 307 308 309 307 307 305 301 304 308 308 307 307 308 308 307 297 302 305 299 307 306 305 307 306 305 304 304 305 306
299 298 300 299 299 298 302 296 294 288 292 301 303 304 305 305 305 305 307 306 307 306 305 305 302 309 308 308 309 310 309 307 308 306 306 306 307 308 306 304 303 303 303 303 305
298 299 300 299 299 298 302 292 293 294 300 304 303 298 299 305 304 304 309 307 307 306 301 306 298 305 307 307 309 307 305 309 303 299 304 306 305 306 305 304 303 302 301 302 303
298 299 300 299 299 301 294 296 293 301 303 304 296 299 297 303 302 304 305 307 307 307 305 302 303 300 306 305 306 308 307 309 302 300 303 304 305 306 304 304 301 300 299 300 300
298 300 303 300 299 301 292 289 297 301 303 299 294 300 303 302 302 304 305 307 306 306 305 304 306 299 304 305 308 309 308 308 308 307 307 301 303 305 304 302 301 299 299 298 298
299 297 300 300 297 295 289 295 300 301 302 303 300 302 303 303 303 304 305 305 303 302 304 305 305 302 298 305 306 307 310 310 308 307 305 306 303 303 301 300 300 299 298 297 296
300 300 300 300 292 290 296 299 301 302 302 303 303 301 302 302 298 303 304 302 302 303 304 303 304 299 299 303 303 303 306 306 306 307 309 309 305 301 300 300 299 298 297 296 295
299 299 300 300 301 296 293 296 299 301 303 303 303 303 303 299 302 301 304 303 302 304 304 303 303 305 304 307 306 302 305 304 305 302 305 306 304 302 301 299 299 298 297 296 295
299 299 299 299 298 299 298 298 300 298 302 303 302 302 302 295 292 297 302 302 302 303 302 303 304 300 302 304 305 306 307 303 303 304 305 303 303 303 301 300 299 297 297 297 296
299 299 299 299 299 299 299 297 299 300 300 301 301 301 301 301 297 297 300 301 301 300 300 300 299 303 298 303 304 305 307 300 298 304 304 303 303 302 300 300 298 298 298 297 297
299 298 299 298 298 299 297 297 298 300 301 301 301 301 301 301 302 301 301 301 300 299 299 299 301 301 299 303 301 305 303 303 304 303 304 300 303 301 301 300 297 297 298 297 296
Wind_Speed
12 13 15 15 15 16 15 15 14 13 14 14 14 14 14 11 6 11 10 14 19 20 14 8 6 4 2 6 7 6 2 3 5 5 7 15 4 3 4 2 3 3 3 9 26
12 13 14 15 15 16 16 16 14 14 14 14 12 12 11 8 5 12 11 12 15 15 17 14 6 4 2 4 4 4 4 5 5 4 4 11 11 2 5 5 6 12 10 19 28
11 12 14 14 14 16 16 16 14 14 14 14 13 12 9 6 6 10 14 13 10 12 12 9 7 3 2 5 4 3 4 7 15 8 15 13 9 11 5 4 4 9 16 25 26
11 12 13 14 15 15 14 15 14 14 14 14 14 12 7 9 4 13 12 13 8 10 9 9 5 2 2 2 5 4 7 14 17 22 8 4 13 10 5 5 8 7 10 20 27
11 12 13 13 13 14 14 14 14 13 13 12 13 13 8 7 8 14 14 11 7 9 16 12 13 7 3 8 11 3 8 13 16 12 6 4 8 5 14 11 3 6 12 12 19
10 11 12 12 12 13 14 13 14 13 12 12 13 10 13 6 9 12 17 10 8 10 10 12 8 7 6 5 4 7 11 14 11 14 9 4 6 5 5 9 13 10 11 12 12
10 10 11 12 13 14 13 14 14 12 11 12 10 12 14 10 9 10 12 14 14 12 10 9 5 6 10 5 10 8 6 8 9 7 4 5 6 5 19 19 20 26 19 19 16
9 10 11 12 13 13 13 14 12 12 12 10 9 10 5 9 9 12 11 9 9 10 7 6 6 4 3 10 5 2 1 4 5 5 8 8 8 6 19 19 26 30 30 25 24
9 9 11 11 12 12 13 12 9 13 11 12 14 7 3 7 16 15 14 14 9 9 13 12 4 3 4 3 3 4 2 3 6 5 2 5 3 12 17 18 24 28 30 32 24
8 9 10 11 12 12 12 6 6 15 12 7 11 3 9 12 11 13 17 13 9 11 3 8 4 2 3 4 2 4 4 5 5 7 9 7 7 9 24 16 16 20 18 24 31
7 7 8 11 12 13 11 3 2 4 16 9 7 3 7 13 11 12 13 10 11 4 4 5 5 6 6 6 4 4 4 8 10 12 7 4 7 9 21 21 19 25 22 19 16
5 6 7 10 10 12 11 8 8 3 3 8 8 7 10 11 5 14 13 9 7 5 7 3 6 5 6 4 3 2 3 6 9 7 8 8 14 16 16 22 24 18 24 19 17
5 5 6 8 7 11 14 13 7 3 2 3 6 3 6 7 4 10 15 8 5 6 8 2 3 9 4 3 3 4 4 3 5 8 4 9 6 3 5 19 26 27 21 22 20
4 4 5 7 3 8 9 10 6 4 4 7 4 3 8 8 3 9 12 7 4 6 6 3 5 7 7 5 6 5 6 6 7 7 3 6 4 8 9 6 2 15 18 24 28
3 3 4 6 4 6 7 9 3 2 4 4 4 6 9 3 3 8 7 5 4 7 4 4 6 6 6 6 8 2 3 3 4 5 5 2 4 7 5 9 9 14 18 23 17
3 3 2 3 4 6 7 6 3 5 3 5 3 6 5 4 2 2 3 5 2 2 2 6 3 3 3 6 3 6 5 5 1 2 2 3 4 5 3 5 5 18 24 27 27
4 3 2 3 4 5 5 2 5 6 4 6 3 5 4 4 3 1 5 7 5 7 8 7 3 1 1 4 3 4 3 3 4 3 5 2 3 6 6 9 11 14 27 33 28
5 4 2 2 3 4 3 5 7 3 4 4 2 4 3 5 5 7 5 3 7 6 4 5 7 2 1 1 3 4 2 1 3 2 4 6 4 3 3 9 16 20 23 30 29
6 4 2 1 1 2 2 5 7 6 4 2 2 6 5 4 2 4 4 3 1 3 4 6 6 5 4 3 1 3 2 3 0 1 2 3 5 4 16 18 28 29 26 27 28
8 4 3 2 3 0 3 3 3 3 2 1 3 3 1 4 4 1 5 2 2 2 3 2 5 2 4 3 5 2 4 1 2 3 4 4 4 5 19 19 20 22 23 24 27
10 4 2 6 5 1 3 5 3 4 2 3 4 2 2 1 2 3 3 1 2 2 6 3 3 7 4 1 3 1 1 2 2 2 2 2 4 5 9 12 15 23 28 24 25
11 2 5 9 2 2 3 5 4 5 4 3 3 2 2 1 2 1 2 1 6 3 2 2 1 5 7 5 4 3 4 2 2 3 3 2 3 3 10 13 16 20 23 22 25
11 5 8 10 3 2 2 1 4 5 4 4 5 4 5 4 1 2 2 6 9 3 3 2 1 4 8 2 3 3 3 2 6 3 4 2 3 4 11 14 21 23 26 29 32
9 3 4 7 2 5 4 3 2 5 1 4 2 8 4 2 2 4 2 1 9 5 4 4 2 4 4 3 1 3 2 5 2 1 4 3 5 14 16 15 22 26 27 33 34
9 4 6 4 6 6 6 7 5 4 4 8 2 6 5 2 3 3 3 1 5 4 1 2 2 3 8 11 9 7 5 5 2 4 3 2 2 5 10 11 17 20 28 34 34
13 8 7 5 4 9 6 6 9 4 8 4 5 6 7 5 7 7 4 2 3 2 2 3 2 2 4 4 3 6 7 3 2 3 2 3 2 4 7 12 17 22 25 25 24
19 14 7 9 7 5 5 6 10 12 11 6 15 3 6 9 8 5 4 4 6 4 2 0 2 3 4 1 3 5 5 4 2 1 1 2 1 4 3 8 12 15 16 17 18
Wind_Direction
7 5 1 1 2 360 358 355 351 353 4 6 7 1 1 23 57 17 40 21 3 359 359 9 62 45 176 237 239 228 142 221 218 228 257 321 290 99 131 143 49 51 136 158 156
7 6 4 6 5 1 1 356 357 359 10 20 18 12 13 31 59 31 16 350 353 5 14 17 25 57 242 256 246 184 180 220 255 257 303 319 14 325 121 80 37 81 114 149 166
8 9 10 8 7 6 4 4 6 10 8 21 27 23 26 55 99 11 354 348 6 31 25 9 29 10 298 279 263 280 190 229 272 309 330 328 332 346 75 93 124 132 154 163 176
9 14 12 10 11 10 5 10 13 12 18 14 9 17 37 25 51 355 359 10 26 31 32 41 17 344 266 252 282 277 305 268 273 291 298 299 321 333 26 45 132 133 160 174 184
12 14 13 12 10 5 5 8 9 7 6 7 6 9 42 53 27 356 338 337 19 11 21 17 33 13 7 332 354 9 346 341 331 344 347 292 301 308 312 304 340 129 178 190 194
10 15 10 8 6 359 358 357 1 358 359 7 9 40 44 70 19 0 22 0 345 354 25 9 3 337 304 316 1 324 324 308 317 317 315 327 293 314 266 289 282 282 228 208 208
10 12 5 5 4 358 353 354 357 360 11 10 45 77 58 52 48 25 23 18 20 18 13 11 18 7 339 331 345 322 326 330 284 266 263 357 284 244 266 273 271 273 272 243 232
6 6 2 5 3 1 352 353 9 22 14 66 66 70 67 37 6 354 2 334 341 13 351 349 7 24 332 318 319 279 312 329 294 220 235 187 247 289 263 262 259 261 268 262 238
1 360 1 1 4 1 359 357 29 30 51 52 65 50 39 353 347 354 6 3 35 22 44 33 43 5 347 1 2 11 313 249 314 70 353 165 259 266 259 263 252 258 261 258 247
357 358 356 360 3 4 358 3 56 40 36 47 33 41 23 340 353 23 4 22 357 17 52 30 360 60 10 50 58 349 337 338 304 4 359 321 275 290 294 294 286 286 277 257 243
351 352 355 0 2 7 10 41 41 53 44 53 14 19 326 10 26 18 17 1 349 2 18 37 41 46 24 23 52 22 333 314 305 302 335 319 275 278 291 298 289 280 282 288 266
342 346 357 2 4 15 21 68 56 10 46 33 32 14 349 8 12 2 8 18 2 4 1 26 73 29 337 69 28 330 325 306 295 345 333 303 283 266 261 265 269 275 282 286 301
339 343 353 360 12 13 34 49 25 117 92 39 13 4 354 22 17 358 3 359 8 8 1 352 290 325 13 12 337 347 322 337 316 330 302 348 305 355 279 249 255 263 270 275 278
330 331 348 358 17 15 24 20 17 111 75 320 8 342 348 340 35 7 10 25 2 351 350 296 9 10 352 351 3 313 13 9 346 2 305 54 291 333 326 345 276 267 266 266 264
307 305 347 7 20 20 1 352 16 121 59 300 332 345 356 33 301 346 22 20 47 337 31 296 355 14 4 16 342 325 334 286 292 286 339 301 66 274 310 17 7 23 24 25 353
279 281 336 342 20 15 358 352 81 40 266 332 326 344 13 305 175 331 15 8 30 46 243 260 269 348 327 318 317 333 316 330 261 84 356 246 129 283 29 13 12 5 4 2 1
254 251 293 344 351 4 357 340 41 94 329 311 334 332 344 320 325 243 95 40 33 12 13 330 346 212 260 349 26 29 15 356 2 0 212 82 100 263 51 34 29 4 353 346 343
228 231 249 326 343 345 0 49 72 227 235 268 288 336 58 352 333 347 24 67 51 52 351 358 332 320 66 348 347 333 356 105 306 334 278 319 227 160 23 32 26 10 354 348 334
216 220 219 251 310 336 322 54 189 197 193 312 6 62 332 323 55 42 66 66 52 49 78 354 289 333 52 337 44 313 334 339 210 349 11 266 293 207 -0 1 359 358 353 339 337
197 201 226 200 185 291 62 165 156 218 156 192 133 150 178 339 12 16 22 189 124 150 114 195 292 282 313 18 30 341 338 311 22 28 318 307 318 320 351 339 334 339 339 336 332
181 165 190 183 174 137 152 208 197 194 129 120 197 117 67 140 266 318 39 209 34 187 174 138 185 290 336 37 334 341 343 256 264 189 199 297 290 11 328 337 334 338 337 334 339
172 110 168 170 106 35 152 182 166 157 171 201 129 150 112 268 290 291 60 99 98 46 54 106 340 282 237 296 309 310 23 302 232 299 218 179 270 343 351 342 345 343 345 349 0
157 132 166 178 152 232 265 225 183 157 168 184 201 183 177 200 92 262 227 94 57 65 109 135 258 323 346 3 4 53 5 290 272 259 216 213 285 33 358 360 5 358 360 7 13
156 121 142 192 199 148 148 215 187 202 157 214 240 179 167 48 332 241 200 75 344 120 145 134 228 200 229 251 326 307 294 322 257 280 339 284 335 359 6 2 359 1 7 19 21
173 202 176 177 229 199 160 155 155 168 195 204 269 225 184 137 353 246 229 13 78 107 298 152 265 202 263 261 257 250 273 325 284 258 253 321 67 355 356 346 347 5 20 25 20
155 165 166 175 155 155 189 205 180 166 153 224 212 214 211 185 196 205 177 205 162 82 87 20 272 317 289 17 225 257 260 305 264 319 332 111 69 7 353 -0 13 22 25 24 28
191 182 162 166 152 144 207 192 197 164 201 183 206 176 213 227 228 194 196 189 145 135 131 229 310 331 274 335 276 278 210 189 254 274 255 108 187 242 286 347 4 17 21 18 17